FW7330 Weather Reports


Display with metric or nautical units.
time (UTC)temp
F
wind
direction
speed
MPH
gust
MPH
rain 1hr
in
rain 24hr
in
rain mn
in
humidity
%
barometer
mb
20260831083225 58 151 1.0 2.0 0.00 0.00 0.00 81 1031.8
20260831082035 59 155 1.0 2.0 0.00 0.00 0.00 78 1031.8
20260831080926 60 180 1.0 1.0 0.00 0.00 0.00 76 1031.7
20260831075655 61 0.0 0.0 0.00 0.00 0.00 74 1031.7
20260831074446 63 0.0 0.0 0.00 0.00 0.00 71 1031.5
20260831073257 64 0.0 1.0 0.00 0.00 0.00 70 1031.5
20260831072028 65 0.0 1.0 0.00 0.00 0.00 66 1031.5
20260831070840 66 0.0 0.0 0.00 0.00 0.00 65 1031.4
20260831065548 66 353 2.0 4.0 0.00 0.00 0.00 64 1031.4
20260831064400 66 39 2.0 4.0 0.00 0.00 0.00 63 1031.3
20260831063210 67 46 2.0 4.0 0.00 0.00 0.00 64 1031.4
20260831062021 68 76 1.0 3.0 0.00 0.00 0.00 63 1031.2
20260831060833 68 184 2.0 3.0 0.00 0.00 0.00 62 1031.4
20260831055643 69 55 2.0 4.0 0.00 0.00 0.00 62 1031.4
20260831054352 68 112 2.0 4.0 0.00 0.00 0.00 63 1031.5
20260831053203 68 52 4.0 6.0 0.00 0.00 0.00 63 1031.5
20260831052014 69 105 3.0 6.0 0.00 0.00 0.00 63 1031.5
20260831050826 69 101 2.0 3.0 0.00 0.00 0.00 63 1031.5
20260831045716 69 54 3.0 6.0 0.00 0.00 0.00 63 1031.4
20260831044344 69 96 5.0 7.0 0.00 0.00 0.00 63 1031.6
20260831043156 68 93 4.0 6.0 0.00 0.00 0.00 65 1031.5
20260831042007 68 143 5.0 7.0 0.00 0.00 0.00 66 1031.7
20260831040818 68 98 5.0 8.0 0.00 0.00 0.00 67 1031.8
20260831035629 68 127 5.0 8.0 0.00 0.00 0.00 65 1031.7
20260831034442 69 130 4.0 7.0 0.00 0.00 0.00 63 1031.8
20260831033149 69 52 3.0 7.0 0.00 0.00 0.00 61 1031.7
20260831032001 69 85 4.0 8.0 0.00 0.00 0.00 61 1031.7
20260831030852 69 80 5.0 8.0 0.00 0.00 0.00 61 1032.0
20260831025624 68 87 2.0 7.0 0.00 0.00 0.00 63 1032.0
20260831024435 68 114 5.0 8.0 0.00 0.00 0.00 63 1032.3
20260831023143 67 97 3.0 8.0 0.00 0.00 0.00 64 1032.5
20260831021955 68 160 6.0 8.0 0.00 0.00 0.00 61 1032.6
20260831020806 68 127 3.0 8.0 0.00 0.00 0.00 63 1032.9
20260831015617 70 22 2.0 8.0 0.00 0.00 0.00 62 1032.9
20260831014509 69 54 3.0 9.0 0.00 0.00 0.00 60 1033.1
20260831013240 70 44 2.0 6.0 0.00 0.00 0.00 59 1033.3
20260831011948 68 29 4.0 6.0 0.00 0.00 0.00 59 1033.5
20260831010800 68 114 2.0 4.0 0.00 0.00 0.00 59 1033.6
20260831005611 67 59 3.0 7.0 0.00 0.00 0.00 62 1033.8
20260831004503 67 117 3.0 6.0 0.00 0.00 0.00 61 1033.9
20260831003234 67 58 3.0 7.0 0.00 0.00 0.00 60 1033.8
20260831002046 67 102 4.0 6.0 0.00 0.00 0.00 60 1033.9
20260831000752 67 103 3.0 6.0 0.00 0.00 0.00 58 1033.9
20260830235604 67 41 3.0 7.0 0.00 0.00 0.00 56 1034.0
20260830234415 66 34 2.0 6.0 0.00 0.00 0.00 62 1033.8
20260830233227 66 79 2.0 3.0 0.00 0.00 0.00 58 1033.7
20260830232037 66 149 0.0 3.0 0.00 0.00 0.00 59 1033.7
20260830230746 65 129 1.0 3.0 0.00 0.00 0.00 60 1033.8
20260830225557 65 255 0.0 1.0 0.00 0.00 0.00 69 1033.7
20260830224409 60 261 1.0 2.0 0.00 0.00 0.00 79 1033.8
20260830223220 57 250 2.0 3.0 0.00 0.00 0.00 84 1033.7
20260830222032 55 269 2.0 2.0 0.00 0.00 0.00 87 1033.6
20260830220842 54 270 2.0 3.0 0.00 0.00 0.00 90 1033.6
20260830215550 53 273 2.0 4.0 0.00 0.00 0.00 92 1033.5
20260830214402 53 307 2.0 2.0 0.00 0.00 0.00 96 1033.4
20260830213254 50 164 2.0 2.0 0.00 0.00 0.00 97 1033.2
20260830212106 48 181 1.0 2.0 0.00 0.00 0.00 97 1033.3
20260830210837 47 186 1.0 2.0 0.00 0.00 0.00 97 1033.1
20260830205544 45 182 0.0 1.0 0.00 0.00 0.00 97 1032.8
20260830204356 45 182 0.0 1.0 0.00 0.00 0.00 97 1032.7
20260830203208 45 184 0.0 1.0 0.00 0.00 0.00 97 1032.6
20260830202020 44 166 1.0 2.0 0.00 0.00 0.00 97 1032.5
20260830200831 44 152 1.0 2.0 0.00 0.00 0.00 97 1032.5
20260830195643 44 158 1.0 2.0 0.00 0.00 0.00 97 1032.3
20260830194351 44 0.0 0.0 0.00 0.00 0.00 97 1032.2
20260830193203 44 0.0 0.0 0.00 0.00 0.00 97 1032.2
20260830192014 46 0.0 0.0 0.00 0.00 0.00 96 1032.2
20260830190906 45 162 1.0 2.0 0.00 0.00 0.00 96 1032.1
20260830185717 45 170 1.0 1.0 0.00 0.00 0.00 96 1032.1
20260830184346 44 155 1.0 2.0 0.00 0.00 0.00 96 1032.0
20260830183157 44 0.0 0.0 0.00 0.00 0.00 96 1032.1
20260830182049 44 0.0 0.0 0.00 0.00 0.00 96 1032.3
20260830180820 45 0.0 1.0 0.00 0.00 0.00 96 1032.2
20260830175631 45 171 1.0 1.0 0.00 0.00 0.00 96 1032.3
20260830174442 45 0.0 0.0 0.00 0.00 0.00 96 1032.3
20260830173150 46 0.0 1.0 0.00 0.00 0.00 95 1032.4
20260830172003 46 172 1.0 1.0 0.00 0.00 0.00 95 1032.6
20260830170813 46 171 1.0 1.0 0.00 0.00 0.00 95 1032.6
20260830165625 46 172 0.0 1.0 0.00 0.00 0.00 95 1032.7
20260830164435 46 0.0 0.0 0.00 0.00 0.00 95 1032.9
20260830163144 47 172 1.0 1.0 0.00 0.00 0.00 95 1033.2
20260830161956 46 154 1.0 2.0 0.00 0.00 0.00 95 1033.1
20260830160806 46 140 1.0 2.0 0.00 0.00 0.00 94 1033.2
20260830155618 46 200 0.0 1.0 0.00 0.00 0.00 94 1033.4
20260830154429 46 212 0.0 1.0 0.00 0.00 0.00 93 1033.5
20260830153241 48 166 1.0 2.0 0.00 0.00 0.00 93 1033.7
20260830151948 47 168 1.0 2.0 0.00 0.00 0.00 93 1033.7
20260830150800 47 158 1.0 2.0 0.00 0.00 0.00 93 1033.7
20260830145611 47 161 1.0 1.0 0.00 0.00 0.00 93 1033.7
20260830144127 48 0.0 0.0 0.00 0.00 0.00 92 1034.0
20260830143012 48 0.0 0.0 0.00 0.00 0.00 92 1033.9
20260830141743 48 169 1.0 1.0 0.00 0.00 0.00 92 1033.9
20260830140532 48 179 0.0 1.0 0.00 0.00 0.00 92 1033.8
20260830135306 48 156 1.0 2.0 0.00 0.00 0.00 92 1033.7
20260830134114 48 0.0 0.0 0.00 0.00 0.00 92 1033.9
20260830132926 49 0.0 0.0 0.00 0.00 0.00 91 1033.9
20260830131737 49 176 1.0 1.0 0.00 0.00 0.00 91 1034.1
20260830130446 49 176 0.0 1.0 0.00 0.00 0.00 91 1034.0
20260830125337 49 160 1.0 2.0 0.00 0.00 0.00 91 1034.2
20260830124148 49 167 0.0 1.0 0.00 0.00 0.00 91 1034.2
20260830122920 50 0.0 0.0 0.00 0.00 0.00 90 1034.1
20260830121732 50 0.0 0.0 0.00 0.00 0.00 89 1034.1
20260830120543 51 0.0 0.0 0.00 0.00 0.00 87 1034.1
20260830115252 52 0.0 0.0 0.00 0.00 0.00 85 1033.9
20260830114103 54 242 1.0 1.0 0.00 0.00 0.00 82 1033.9
20260830112915 55 120 2.0 3.0 0.00 0.00 0.00 83 1033.9
20260830111806 54 130 3.0 4.0 0.00 0.00 0.00 86 1033.8
20260830110538 53 105 3.0 4.0 0.00 0.00 0.00 88 1033.5
20260830105326 52 124 1.0 2.0 0.00 0.00 0.00 88 1033.5
20260830104137 53 135 0.0 3.0 0.00 0.00 0.00 88 1033.1
20260830102909 52 84 4.0 6.0 0.00 0.00 0.00 90 1033.2
20260830101721 52 0.0 0.0 0.00 0.00 0.00 88 1032.8
20260830100532 52 0.0 0.0 0.00 0.00 0.00 88 1032.9
20260830095344 52 141 1.0 2.0 0.00 0.00 0.00 87 1032.9
20260830094052 54 0.0 1.0 0.00 0.00 0.00 85 1032.8
20260830092904 54 0.0 1.0 0.00 0.00 0.00 84 1032.8
20260830091755 54 150 2.0 3.0 0.00 0.00 0.00 83 1032.7
20260830090527 55 183 1.0 2.0 0.00 0.00 0.00 83 1032.7
20260830085337 55 101 2.0 3.0 0.00 0.00 0.00 83 1032.6
20260830084045 56 160 1.0 2.0 0.00 0.00 0.00 81 1032.4